Location: Beetenbrück
(52.8113°N, 9.5946°E)
Time: 16:51:53
(UTC+00:00)

Cosmos 2278 Rocket - Pass Details

Date: 14 April 2026
Orbit: 839 x 846 km, 71.0° (Epoch: 9 May)

Event Time Altitude Azimuth Distance (km) Brightness Sun altitude
Rises 20:35:12 0° 324° (NW) 3,418 7.0 -18.2°
Reaches altitude 10° 20:37:48 10° 317° (NW) 2,478 5.9 -18.4°
Maximum altitude 20:42:58 37° 252° (WSW) 1,300 3.3 -19.0°
Enters shadow 20:46:48 17° 194° (SSW) 2,038 3.9 -19.3°
